Regional Weather Roundup
Issued by NWS Charleston, SC

Current Version | Previous Version | Text Only | Print | Product List | Glossary Off
Versions: 1 2 3 4 5 6 7 8 9 10 11 12 13 14 15 16 17 18 19 20 21 22 23 24 25 26 27 28 29 30 31 32 33 34 35 36 37 38 39 40 41 42 43 44 45 46 47 48 49 50

000
ASUS42 KCHS 230413
RWRCHS

Regional Weather Roundup
National Weather Service Charleston SC
1200 AM EDT MON APR 23 2018

NOTE: "fair" indicates few or no clouds below 12,000 feet with no
significant weather and/or obstructions to visibility.

Not all stations are quality controlled. Use data with caution,
especially dewpoint observations.

SCZ027-030-031-034>040-042>050-230500-
...Southeast South Carolina...

CITY           SKY/WX    TMP DP  RH WIND       PRES   REMARKS
N Charleston   LGT RAIN  66  54  65 E18       30.21F
Waterfront Prk   N/A     66  58  75 E17       30.07
Mount Pleasant FAIR      64  55  72 E9        30.23S
Johns Island   FAIR      66  59  77 E16G22    30.19F
Pinopolis        N/A     63  57  82 E6G13     30.13
Moncks Corner  FAIR      61  52  72 E5        30.22F
Summerville    FAIR      64  52  63 E8        30.21F
Beaufort MCAS  FAIR      68  59  73 E17G24    30.17F
Beaufort Arpt  MOCLDY    66  57  72 E12       30.18R
Hilton Head Is FAIR      66  61  82 E8G16     30.18S
Walterboro     FAIR      63  54  72 E9        30.19F
Allendale      FAIR      64  55  72 E7G13     30.16F

...Southern Midlands and Pee Dee...

CITY           SKY/WX    TMP DP  RH WIND       PRES   REMARKS
Georgetown     CLOUDY    61  55  82 E14       30.27F
Kingstree      MOCLDY    59  55  88 E7        30.24F
Orangeburg     FAIR      62  53  72 SE10      30.21F
Barnwell       MOCLDY    63  54  72 E10       30.17F
Aiken          MOCLDY    57  54  88 E8        30.21S
Manning        FAIR      55  50  82 E6        30.23S
Columbia       MOCLDY    61  58  90 E12       30.20F
Sumter         CLOUDY    60  53  77 E9        30.22S
Florence       MOCLDY    61  51  70 SE7       30.27S
Myrtle Beach   CLOUDY    62  57  83 E13       30.29F
N Myrtle Beach FAIR      63  55  75 E10       30.29S

$$

GAZ063-065-086>088-099>101-113>116-118-119-134>141-150-230500-
...Southeast Georgia...

CITY           SKY/WX    TMP DP  RH WIND       PRES   REMARKS
Savannah Arpt  CLOUDY    66  60  81 E14       30.14F
Hunter AAF     FAIR      67  60  78 E16       30.11F
Fort Stewart   LGT RAIN  65  61  88 E8        30.11F
Statesboro     LGT RAIN  64  56  73 E10       30.12F
Sylvania       DRIZZLE   64  57  77 E10G16    30.16F
Claxton        LGT RAIN  64  61  89 NE8       30.13F

...CSRA, Central and far Southeast Georgia...

CITY           SKY/WX    TMP DP  RH WIND       PRES   REMARKS
Thomson        MOCLDY    58  56  91 S9        30.19F
Augusta-Bush   MOCLDY    60  56  86 E6        30.15F
Augusta-Daniel MOCLDY    62  55  77 E12       30.16F
Swainsboro     MOCLDY    64  57  77 SE15G21   30.11F
Vidalia        LGT RAIN  64  61  88 E13G23    30.10F
Eastman        LGT RAIN  65  54  65 SE9       30.10S
Hazlehurst     MOCLDY    67  59  74 SE12G24   30.07F
Alma           CLOUDY    66  61  84 SE10G22   30.08F
Waycross       CLOUDY    66  64  91 E16G23    30.08S
Jesup          NOT AVBL
Baxley         MOCLDY    63  61  94 E10G20    30.07F
Brunswick      LGT RAIN  66  61  82 E15G24    30.13S
Saint Simons   LGT RAIN  67  65  93 E18G30    30.12F

$$

SCZ027-028-034-036>038-045-046-048>050-GAZ119-141-230500-
...Lake and Supplemental Coastal Observations...

STATION/POSITION TIME  TEMP    WIND        PRES    WAVE   SWELL
                       AIR SEA DIR/SP/G            HT/PER HT/PER/DIR
                 (UTC) (F)     (DEG/KT/KT) (MB)    (FT/S) (FT/S/D)
Winyah Bay       0245   63      90/  9     1025.0
Lake Murray      0320   62     100/ 12/ 18 1022.4
ACE Basin NERRS  0245   66     350/  4       N/A
Fort Pulaski     0336   66 65   90/ 18/ 20 1021.4F
Sapelo Island    0300   67      90/ 11     1020.0

$$

ANZ835-935-AMZ111-154-330-350-352-354-370-450-454-472-230500-
...C-MAN and Buoy Observations...

STATION/POSITION TIME  TEMP    WIND        PRES    WAVE   SWELL
                       AIR SEA DIR/SP/G            HT/PER HT/PER/DIR
                 (UTC) (F)     (DEG/KT/KT) (MB)    (FT/S) (FT/S/D)
Buoy 41004       0350   69 67  100/ 19/ 25 1023.1F   6/ 6
Buoy 41008       0350   67 65  120/ 19/ 23 1019.7F   6/ 7   2/ 80/12
Folly Beach CMAN NOT AVBL
Capers Nearshore 0308   65 64   80/ 17/ 23 1024.1F
Fripp Nearshore  0308   65 64   80/ 14/ 19 1021.6F


STATION/POSITION TIME  TEMP    WIND        PRES    WAVE   SWELL
                       AIR SEA DIR/SP/G            HT/PER HT/PER/DIR
                 (UTC) (F)     (DEG/KT/KT) (MB)    (FT/S) (FT/S/D)
5E St. Marys GA  0330      67                N/A     6/ 7
Frying Pan Buoy  0350   67 70  110/ 17/ 21 1025.6F   4/ 6   2/140/ 8
Buoy 41025       0400   65 74  100/ 12/ 16 1029.0
Cape Lookout NC  NOT AVBL
Buoy 41002       0350   67 72  100/ 16/ 21 1024.6F   5/ 5   2/120/ 8
Buoy 41010       0350   73 75  100/ 23/ 27 1020.6F   8/ 8   2/ 50/14
St Augustine FL  0400   70 69  120/ 12/ 13 1018.5F


$$




USA.gov is the U.S. government's official web portal to all federal, state and local government web resources and services.